CAPE
0 0 0 0 0 0 0 0 0 0 0 0 0 0 0 0 0 0 0 0 0 0 0 0 0 0 0 0 0 0 0 0 0 0 0 0 0 0 0 0 0 0 0 0
0 0 0 0 0 0 0 0 0 0 0 0 0 0 0 0 0 0 0 0 0 0 0 0 0 0 0 0 0 0 0 0 0 0 0 0 0 0 0 0 0 0 0 0
0 0 0 0 0 0 0 0 0 0 0 0 0 0 0 0 0 0 0 0 0 0 0 0 0 0 0 0 0 0 0 0 0 0 0 0 0 0 0 0 0 0 0 0
0 0 0 0 0 0 0 0 0 0 0 0 0 0 0 0 0 0 0 0 0 0 0 0 0 0 0 0 0 0 0 0 0 0 0 0 0 0 0 0 0 0 0 0
0 0 0 0 0 0 0 0 0 0 0 0 0 0 0 0 0 0 0 0 0 0 0 0 0 0 0 0 0 0 0 0 0 0 0 0 0 0 0 0 0 0 0 0
0 0 0 0 0 0 0 0 0 0 0 0 0 0 0 0 0 0 0 0 0 0 0 0 0 0 0 0 0 0 0 0 0 0 0 0 0 0 0 0 0 0 0 0
0 0 0 0 0 0 0 0 0 0 0 0 0 0 0 0 0 0 0 0 0 0 0 0 0 0 0 0 0 0 0 0 0 0 0 0 0 0 0 0 0 0 0 0
0 0 0 0 0 0 0 0 0 0 0 0 0 0 0 0 0 0 0 0 0 0 0 0 0 0 0 0 0 0 0 0 0 0 0 0 0 0 0 0 0 0 0 0
0 0 0 0 0 0 0 0 0 0 0 0 0 0 0 0 0 0 0 0 0 0 0 0 0 0 0 0 0 0 0 0 0 0 0 0 0 0 0 0 0 0 0 0
0 0 0 0 0 0 0 0 0 0 0 0 0 0 0 0 0 0 0 0 0 0 0 0 0 0 0 0 0 0 0 0 0 0 0 0 0 0 0 0 0 0 0 0
4 5 0 0 0 0 0 0 0 0 0 0 0 0 0 0 0 0 0 0 0 0 0 0 0 0 0 0 0 0 0 0 0 0 0 0 0 0 0 0 0 0 0 0
0 16 0 0 0 0 0 0 0 0 0 0 0 0 0 0 0 0 0 0 0 0 0 0 0 0 0 0 0 0 0 0 0 0 0 0 0 0 0 0 0 0 0 0
1 3 6 3 0 0 0 0 0 0 0 0 0 0 0 0 0 0 0 0 0 0 0 0 0 0 0 0 0 0 0 0 0 0 0 0 0 0 0 0 0 0 0 0
0 2 0 0 0 0 0 0 0 0 0 0 0 0 0 0 0 0 0 0 0 0 0 0 0 0 0 0 0 0 0 0 0 0 0 0 0 0 0 0 0 0 0 0
0 0 0 0 1 0 0 0 0 0 0 0 0 0 0 0 0 0 0 0 0 0 0 0 0 0 0 0 0 0 0 0 0 0 0 0 0 0 0 0 0 0 0 0
0 0 0 0 0 0 0 0 0 0 0 0 0 0 0 0 0 0 0 0 0 0 0 0 0 0 0 0 0 0 0 0 0 0 0 0 0 0 0 0 0 0 0 0
0 0 0 0 0 0 0 0 0 0 0 0 0 0 0 0 0 0 0 0 0 0 0 0 0 0 0 0 0 0 0 0 0 0 0 0 0 0 0 0 0 0 0 0
0 0 0 0 0 0 0 0 0 0 0 0 0 0 0 0 0 0 0 0 0 0 0 0 0 0 0 0 0 0 0 0 0 0 0 0 0 0 0 0 0 0 0 0
0 0 0 0 0 0 0 0 0 0 0 0 0 0 0 0 0 0 0 0 0 0 0 0 0 0 0 0 0 0 0 0 0 0 0 0 0 0 0 0 0 0 0 0
0 0 0 0 0 0 0 0 1 3 0 0 0 0 0 0 0 0 0 0 0 0 0 0 0 0 0 0 0 0 0 0 0 0 0 0 0 0 0 0 0 0 0 0
0 0 0 0 0 0 0 0 0 0 0 0 0 0 0 0 0 0 0 0 0 0 0 0 0 0 0 0 0 0 0 0 0 0 0 0 0 0 0 0 0 0 0 0
0 0 0 0 0 0 0 0 0 0 0 0 0 0 0 0 0 0 0 0 0 0 0 0 0 0 0 0 0 0 0 0 0 0 0 0 0 0 0 0 0 0 0 0
0 0 0 0 0 0 0 0 0 0 0 0 0 0 0 0 0 0 0 0 0 0 0 0 0 0 0 0 0 0 0 0 0 0 0 0 0 0 0 0 0 0 0 0
0 0 0 0 0 0 0 0 0 0 0 0 0 0 0 0 0 0 0 0 0 0 0 0 0 0 0 0 0 0 0 0 0 0 0 0 0 0 0 0 0 0 0 0
0 0 0 0 0 0 0 0 0 0 0 0 0 0 0 0 0 0 0 0 0 0 0 0 0 0 0 0 0 0 0 0 0 0 0 0 0 0 0 0 0 0 0 0
0 0 0 0 0 0 0 0 0 0 0 0 0 0 0 0 0 0 0 0 0 0 0 0 0 0 0 0 0 0 0 0 0 0 0 0 0 0 0 0 0 0 0 0
CIN
-0 -0 -0 -0 -0 -0 -0 -0 -0 -0 -0 -0 -0 -0 -0 -0 -0 -0 -0 -0 -0 -0 -0 -0 -0 -0 -0 -0 -0 -0 -0 -0 -0 -0 -0 -0 -0 -0 -0 -0 -0 -0 -0 -0
-0 -0 -0 -0 -0 -0 -0 -0 -0 -0 -0 -0 -0 -0 -0 -0 -0 -0 -0 -0 -0 -0 -0 -0 -0 -0 -0 -0 -0 -0 -0 -0 -0 -0 -0 -0 -0 -0 -0 -0 -0 -0 -0 -0
-0 -0 -0 -0 -0 -0 -0 -0 -0 -0 -0 -0 -0 -0 -0 -0 -0 -0 -0 -0 -0 -0 -0 -0 -0 -0 -0 -0 -0 -0 -0 -0 -0 -0 -0 -0 -0 -0 -0 -0 -0 -0 -0 -0
-0 -0 -0 -0 -0 -0 -0 -0 -0 -0 -0 -0 -0 -0 -0 -0 -0 -0 -0 -0 -0 -0 -0 -0 -0 -0 -0 -0 -0 -0 -0 -0 -0 -0 -0 -0 -0 -0 -0 -0 -0 -0 -0 -0
-0 -0 -0 -0 -0 -0 -0 -0 -0 -0 -0 -0 -0 -0 -0 -0 -0 -0 -0 -0 -0 -0 -0 -0 -0 -0 -0 -0 -0 -0 -0 -0 -0 -0 -0 -0 -0 -0 -0 -0 -0 -0 -0 -0
-0 -0 -0 -0 -0 -0 -0 -0 -0 -0 -0 -0 -0 -0 -0 -0 -0 -0 -0 -0 -0 -0 -0 -0 -0 -0 -0 -0 -0 -0 -0 -0 -0 -0 -0 -0 -0 -0 -0 -0 -0 -0 -0 -0
-0 -0 -0 -0 -0 -0 -0 -0 -0 -0 -0 -0 -0 -0 -0 -0 -0 -0 -0 -0 -0 -0 -0 -0 -0 -0 -0 -0 -0 -0 -0 -0 -0 -0 -0 -0 -0 -0 -0 -0 -0 -0 -0 -0
-0 -0 -0 -0 -0 -0 -0 -0 -0 -0 -0 -0 -0 -0 -0 -0 -0 -0 -0 -0 -0 -0 -0 -0 -0 -0 -0 -0 -0 -0 -0 -0 -0 -0 -0 -0 -0 -0 -0 -0 -0 -0 -0 -0
-0 -0 -0 -0 -0 -0 -0 -0 -0 -0 -0 -0 -0 -0 -0 -0 -0 -0 -0 -0 -0 -0 -0 -0 -0 -0 -0 -0 -0 -0 -0 -0 -0 -0 -0 -0 -0 -0 -0 -0 -0 -0 -0 -0
-0 -0 -0 -0 -0 -0 -0 -0 -0 -0 -0 -0 -0 -0 -0 -0 -0 -0 -0 -0 -0 -0 -0 -0 -0 -0 -0 -0 -0 -0 -0 -0 -0 -0 -0 -0 -0 -0 -0 -0 -0 -0 -0 -0
-16 -7 -0 -0 -0 -0 -0 -0 -0 -0 -0 -0 -0 -0 -0 -0 -0 -0 -0 -0 -0 -0 -0 -0 -0 -0 -0 -0 -0 -0 -0 -0 -0 -0 -0 -0 -0 -0 -0 -0 -0 -0 -0 -0
-0 -7 -1 -0 -0 -0 -0 -0 -0 -0 -0 -0 -0 -0 -0 -0 -0 -0 -0 -0 -0 -0 -0 -0 -0 -0 -0 -0 -0 -0 -0 -0 -0 -0 -0 -0 -0 -0 -0 -0 -0 -0 -0 -0
-1 -11 -5 -12 -0 -0 -0 -0 -0 -0 -0 -0 -0 -0 -0 -0 -0 -0 -0 -0 -0 -0 -0 -0 -0 -0 -0 -0 -0 -0 -0 -0 -0 -0 -0 -0 -0 -0 -0 -0 -0 -0 -0 -0
-0 -3 -2 -0 -0 -0 -0 -0 -0 -0 -0 -0 -0 -0 -0 -0 -0 -0 -0 -0 -0 -0 -0 -0 -0 -0 -0 -0 -0 -0 -0 -0 -0 -0 -0 -0 -0 -0 -0 -0 -0 -0 -0 -0
-0 -0 -0 -0 -27 -5 -0 -0 -0 -0 -0 -0 -0 -0 -0 -0 -0 -0 -0 -0 -0 -0 -0 -0 -0 -0 -0 -0 -0 -0 -0 -0 -0 -0 -0 -0 -0 -0 -0 -0 -0 -0 -0 -0
-0 -0 -0 -0 -0 -67 -0 -0 -0 -0 -0 -0 -0 -0 -0 -0 -0 -0 -0 -0 -0 -0 -0 -0 -0 -0 -0 -0 -0 -0 -0 -0 -0 -0 -0 -0 -0 -0 -0 -0 -0 -0 -0 -0
-0 -0 -0 -0 -0 -0 -0 -0 -0 -0 -0 -0 -0 -0 -0 -0 -0 -0 -0 -0 -0 -0 -0 -0 -0 -0 -0 -0 -0 -0 -0 -0 -0 -0 -0 -0 -0 -0 -0 -0 -0 -0 -0 -0
-0 -0 -0 -0 -0 -0 -0 -0 -0 -0 -0 -0 -0 -0 -0 -0 -0 -0 -0 -0 -0 -0 -0 -0 -0 -0 -0 -0 -0 -0 -0 -0 -0 -0 -0 -0 -0 -0 -0 -0 -0 -0 -0 -0
-0 -0 -0 -0 -0 -0 -0 -0 -0 -0 -0 -0 -0 -0 -0 -0 -0 -0 -0 -0 -0 -0 -0 -0 -0 -0 -0 -0 -0 -0 -0 -0 -0 -0 -0 -0 -0 -0 -0 -0 -0 -0 -0 -0
-0 -0 -0 -0 -0 -0 -0 -0 -0 -0 -0 -0 -0 -0 -0 -0 -0 -0 -0 -0 -0 -0 -0 -0 -0 -0 -0 -0 -0 -0 -0 -0 -0 -0 -0 -0 -0 -0 -0 -0 -0 -0 -0 -0
-0 -0 -0 -0 -0 -0 -0 -0 -0 -0 -0 -0 -0 -0 -0 -0 -0 -0 -0 -0 -0 -0 -0 -0 -0 -0 -0 -0 -0 -0 -0 -0 -0 -0 -0 -0 -0 -0 -0 -0 -0 -0 -0 -0
-0 -0 -0 -0 -0 -0 -0 -0 -0 -0 -0 -0 -0 -0 -0 -0 -0 -0 -0 -0 -0 -0 -0 -0 -0 -0 -0 -0 -0 -0 -0 -0 -0 -0 -0 -0 -0 -0 -0 -0 -0 -0 -0 -0
-0 -0 -0 -0 -0 -0 -0 -0 -0 -0 -0 -0 -0 -0 -0 -0 -0 -0 -0 -0 -0 -0 -0 -0 -0 -0 -0 -0 -0 -0 -0 -0 -0 -0 -0 -0 -0 -0 -0 -0 -0 -0 -0 -0
-0 -0 -0 -0 -0 -0 -0 -0 -0 -0 -0 -0 -0 -0 -0 -0 -0 -0 -0 -0 -0 -0 -0 -0 -0 -0 -0 -0 -0 -0 -0 -0 -0 -0 -0 -0 -0 -0 -0 -0 -0 -0 -0 -0
-0 -0 -0 -0 -0 -0 -0 -0 -0 -0 -0 -0 -0 -0 -0 -0 -0 -0 -0 -0 -0 -0 -0 -0 -0 -0 -0 -0 -0 -0 -0 -0 -0 -0 -0 -0 -0 -0 -0 -0 -0 -0 -0 -0
-0 -0 -0 -0 -0 -0 -0 -0 -0 -0 -0 -0 -0 -0 -0 -0 -0 -0 -0 -0 -0 -0 -0 -0 -0 -0 -0 -0 -0 -0 -0 -0 -0 -0 -0 -0 -0 -0 -0 -0 -0 -0 -0 -0
Wind_Speed
30 35 36 39 35 35 35 36 38 34 33 35 42 47 47 43 40 44 44 42 42 43 38 31 26 22 20 17 14 12 11 9 8 6 4 1 2 4 7 9 11 12 14 16
37 50 36 33 35 37 38 40 40 34 31 33 39 47 46 45 47 45 47 47 46 43 37 32 26 19 17 17 16 14 13 11 10 8 5 5 3 5 5 7 9 11 12 14
46 40 34 33 36 40 44 45 40 38 31 33 39 50 50 44 43 46 47 48 47 47 46 37 27 20 17 16 15 14 13 13 12 9 6 6 5 8 6 6 7 9 11 13
47 45 35 38 41 37 49 35 36 38 38 45 33 53 46 41 42 41 42 42 45 47 39 37 31 22 17 16 16 15 14 13 12 11 9 7 4 3 4 3 6 8 10 11
46 39 42 42 42 33 42 28 35 39 42 43 43 47 48 39 46 47 43 40 37 36 35 33 27 23 19 16 15 14 14 14 13 13 11 8 6 5 5 4 4 6 8 10
44 35 37 46 36 32 26 26 28 29 35 52 49 45 57 46 45 42 34 31 32 32 30 27 24 21 20 18 16 15 15 14 14 13 12 10 7 4 3 2 2 4 6 8
43 42 37 34 38 32 32 31 37 43 44 55 38 43 59 35 34 33 34 30 27 28 28 25 21 18 19 19 18 16 16 15 15 14 13 11 8 5 3 1 0 2 4 6
51 52 46 37 39 40 38 34 37 42 47 47 34 47 49 38 41 38 36 32 30 27 23 21 19 18 17 19 19 17 16 16 15 15 14 11 9 7 5 2 1 1 3 5
48 54 34 39 37 35 40 45 33 32 30 38 41 46 47 47 45 38 35 33 30 26 20 18 16 15 15 17 19 17 16 16 15 15 14 12 10 8 6 3 2 1 1 3
38 47 40 38 34 38 41 34 40 36 44 45 42 46 45 29 31 32 28 27 24 22 18 16 14 14 14 14 16 17 16 15 15 14 14 13 11 9 6 4 3 2 1 2
42 40 38 36 45 47 41 43 40 38 35 41 43 42 31 34 31 23 23 17 17 17 17 14 12 11 10 11 13 14 16 16 15 14 13 13 12 10 8 7 5 3 2 3
47 42 46 45 38 40 42 45 43 45 46 39 37 38 21 22 25 22 15 13 15 13 12 11 11 11 11 11 12 13 14 15 15 14 13 13 12 11 10 8 6 4 3 2
44 50 51 45 43 37 47 45 47 43 41 50 48 45 27 21 18 17 16 12 11 12 11 10 11 11 12 13 12 13 14 16 16 15 15 14 14 13 12 9 6 5 4 3
26 44 57 58 53 41 48 49 47 48 50 50 51 37 28 21 18 16 12 11 9 10 10 8 8 10 11 12 12 12 14 15 16 16 16 16 14 13 12 9 7 6 4 3
18 30 42 55 45 42 48 49 49 51 57 51 51 48 37 24 21 17 13 10 6 5 7 8 8 9 10 11 13 14 15 15 16 16 17 16 14 13 12 10 8 6 5 5
20 24 24 38 46 45 43 49 48 50 57 56 46 48 36 27 24 18 11 8 6 6 8 10 10 10 11 12 11 11 13 15 16 16 16 14 14 13 12 10 9 7 6 5
30 27 28 34 30 42 56 47 49 53 50 54 55 43 33 32 25 19 17 12 10 10 12 13 13 13 14 14 13 13 12 13 15 17 17 16 14 13 13 11 9 9 8 6
28 33 31 37 32 44 34 40 43 51 53 54 50 47 46 39 31 25 20 19 18 18 19 19 17 17 17 16 16 16 12 13 13 13 15 15 14 14 14 12 12 10 8 7
29 27 37 40 39 39 34 28 35 44 56 49 51 45 43 46 38 35 29 23 24 26 27 27 27 25 22 19 16 17 14 11 11 14 14 14 15 16 16 15 13 12 10 10
32 31 33 36 44 48 30 20 26 34 59 44 43 44 47 42 49 48 29 27 28 29 29 28 28 27 27 24 20 19 17 14 13 15 16 17 17 18 17 16 15 14 13 11
37 35 39 41 43 44 41 36 26 36 40 30 38 40 38 41 43 34 31 30 29 30 31 30 29 28 27 24 22 23 21 19 20 19 18 18 18 17 16 15 17 15 14 13
39 41 43 43 47 56 34 34 37 27 22 21 18 22 28 28 27 27 29 31 32 33 32 29 30 30 28 25 24 26 30 26 24 22 20 22 23 17 15 15 15 14 14 14
46 42 44 42 44 42 37 42 40 35 34 29 25 24 27 31 31 29 31 32 32 33 33 31 30 29 28 28 29 32 33 28 27 26 26 28 22 19 18 17 17 17 17 16
40 39 48 48 47 48 46 45 44 45 45 43 38 34 32 34 37 36 34 34 35 33 33 33 35 35 33 29 31 35 32 30 30 31 32 30 25 21 20 21 20 19 20 20
38 39 47 52 50 53 53 51 50 51 52 48 45 39 40 40 41 39 37 37 38 38 36 34 37 37 38 35 35 35 34 32 34 33 34 33 29 24 23 24 23 24 24 21
30 39 42 52 52 54 57 53 59 60 59 57 54 53 49 46 48 42 41 40 42 42 41 38 35 37 38 36 37 36 33 32 34 35 33 33 32 28 26 26 25 26 24 23
Wind_Direction
257 256 249 252 253 262 262 260 260 263 265 262 258 255 255 259 261 256 254 254 254 253 258 264 266 260 253 248 240 230 226 219 204 212 201 251 11 32 42 51 49 53 49 44
254 252 255 258 256 256 258 257 258 264 265 263 264 259 259 261 258 257 254 254 253 255 261 264 266 261 249 243 238 231 224 214 209 212 226 291 325 351 23 35 38 39 41 44
246 261 253 253 255 253 254 254 256 261 267 268 269 261 258 264 264 261 258 256 257 254 254 261 264 260 250 235 227 228 223 214 213 218 222 287 312 329 342 7 22 33 45 44
253 252 252 249 251 249 252 257 259 259 263 260 268 258 258 262 262 264 263 262 260 257 262 261 261 256 243 239 232 227 222 214 216 210 210 212 224 300 331 12 25 38 43 44
250 247 244 248 250 247 256 260 259 259 261 264 261 262 258 264 261 261 264 265 266 267 265 264 258 251 243 234 222 220 217 213 212 200 204 211 238 290 330 358 33 40 41 39
251 255 245 247 253 246 253 257 263 265 262 257 256 259 256 259 261 266 271 272 271 270 268 265 264 255 242 237 229 223 217 214 210 205 211 210 217 244 304 340 24 39 35 38
247 248 252 246 243 242 243 242 253 254 253 254 263 256 252 263 267 271 269 275 276 280 270 266 257 250 237 229 226 225 219 221 214 212 213 215 218 222 256 275 54 56 45 41
243 246 241 240 242 241 237 235 247 254 253 255 262 257 259 266 267 272 272 274 275 278 276 265 260 250 240 227 223 221 219 221 216 215 216 223 226 239 256 260 192 110 79 57
244 247 249 243 243 236 239 237 245 257 265 260 260 264 269 269 269 272 271 267 268 273 276 268 261 256 245 233 227 223 222 226 218 215 219 219 226 235 243 245 227 161 68 50
252 249 248 242 241 241 240 236 239 250 252 256 261 260 259 274 278 268 270 264 265 267 272 273 266 260 250 241 236 231 228 221 219 220 221 219 221 230 234 241 224 195 151 82
245 249 248 236 238 233 236 231 241 244 251 253 257 260 271 270 276 287 267 270 271 269 268 270 270 264 255 243 236 230 227 222 220 220 219 220 223 233 242 248 240 215 181 131
237 246 244 241 245 243 238 237 237 239 243 251 257 256 283 284 276 277 291 276 270 273 271 276 272 265 259 252 243 232 232 227 230 228 224 224 226 231 238 244 238 216 188 156
234 239 241 243 245 246 236 237 233 243 246 245 248 255 271 285 292 284 275 287 282 272 273 281 277 269 263 257 250 242 236 235 236 234 232 234 233 233 237 237 223 213 200 167
245 240 238 239 242 240 239 236 235 237 241 243 243 252 256 268 277 282 287 285 281 279 278 284 289 283 273 263 254 247 243 241 239 239 240 239 235 231 229 225 216 209 201 182
265 249 247 242 248 243 243 241 239 237 241 242 244 245 252 263 268 274 279 283 285 275 278 285 293 295 285 273 262 254 249 245 243 243 242 241 239 233 226 224 221 209 202 182
266 259 267 251 245 249 248 242 241 241 242 244 248 247 250 258 262 264 267 270 266 275 285 285 293 300 290 282 277 264 254 249 246 244 242 238 234 230 223 222 218 209 197 178
253 258 265 252 263 251 245 245 242 241 243 241 242 244 246 248 251 249 253 264 267 275 275 280 287 291 288 282 277 270 262 254 249 248 246 241 233 221 219 218 213 218 209 217
259 255 261 259 264 245 249 257 251 246 245 244 246 245 245 248 251 252 256 264 267 271 272 275 282 284 285 284 275 270 269 260 253 249 246 242 231 225 223 224 223 223 219 209
256 260 255 253 253 260 264 262 250 248 245 247 246 248 248 248 251 254 257 260 266 268 270 270 271 276 279 280 278 269 270 273 261 252 245 237 230 228 229 231 229 233 229 237
249 254 258 255 252 248 252 277 272 263 247 252 249 248 246 247 246 246 253 262 267 267 268 267 270 271 272 274 272 270 271 272 268 257 249 241 236 233 231 232 231 239 240 239
250 254 254 254 254 255 254 265 286 250 251 263 252 249 248 247 250 255 258 261 267 268 267 267 269 270 273 273 267 264 266 270 268 261 253 246 239 233 231 231 240 234 238 241
256 255 255 256 254 251 256 258 253 265 269 268 261 257 251 253 253 255 260 264 267 270 268 272 269 269 270 270 266 263 262 269 265 261 256 249 245 237 226 223 230 230 230 235
257 257 259 257 260 261 260 257 255 257 263 264 262 262 267 260 258 262 267 266 268 270 269 270 271 272 272 269 264 262 264 266 263 260 256 249 247 241 237 232 232 234 234 235
264 264 259 259 260 260 260 258 257 257 258 260 263 263 261 264 263 263 266 269 267 271 268 268 269 269 270 272 268 265 267 266 262 259 254 250 247 243 241 242 239 236 235 241
273 270 265 263 263 261 260 259 257 257 257 260 262 263 262 265 262 261 265 268 268 268 269 269 268 268 268 272 272 271 269 264 259 259 254 251 250 244 243 244 241 242 244 238
280 272 269 267 268 264 260 263 257 256 256 256 260 263 265 265 261 261 264 267 267 265 266 266 268 268 269 271 271 272 271 266 258 256 254 252 250 248 246 245 247 252 248 244